sat.trackr.live / text

‹ back to catalog

COSMOS 2530 (RODNIK-S *)

NORAD 43751 · 2018-097A

PAYLOAD ACTIVE UNKNOWN

§ Identity

Operator
Country
CIS
Launch date
2018-11-30
Launch site
PLMSC
Launch vehicle
Mass (kg)
RCS (m²)

External: N2YO · Heavens-Above · Gunter

§ Orbital elements

Epoch: 2026-09-20T04:51:46.730880Z

Period
115.86 min
Inclination
82.5180°
Eccentricity
0.0018645
Mean motion
12.42883568 rev/d
Perigee alt
1,479.7 km
Apogee alt
1,509.1 km
Semi-major
7,872.5 km
B*
5.0565e-4
RAAN
163.3293°
Arg perigee
185.7109°
Mean anomaly
174.3761°
Rev number
35,409

§ Raw data

COSMOS 2530 (RODNIK-S *)1 43751U 18097A   26263.20262420  .00000080  00000+0  50565-3 0  99932 43751  82.5180 163.3293 0018645 185.7109 174.3761 12.42883568354095

JSON: /api/v1/satellites/43751 · /tle

For live sub-satellite position, see the globe view (requires WebGL).

§ Visibility from observer

Set your observer location to see the next 7 days of passes ≥ 10°. The values pass through the URL so the page stays shareable.

No JS? Fill the form by hand. The geolocation button needs JavaScript.

§ Radio — SatNOGS DB

ModeDescriptionDownlinkUplink
FM UHF Unknown 387.175 MHz
FM UHF Unknown 388.687 MHz

2 transmitters · refreshed weekly from db.satnogs.org